Regional Weather Roundup
Issued by NWS Newport/Morehead, NC

Current Version | Previous Version | Graphics & Text | Print | Product List | Glossary On
Versions: 1 2 3 4 5 6 7 8 9 10 11 12 13 14 15 16 17 18 19 20 21 22 23 24 25 26 27 28 29 30 31 32 33 34 35 36 37 38 39 40 41 42 43 44 45 46 47 48 49 50
000 ASUS42 KMHX 271325 RWRMHX WEATHER ROUNDUP FOR EASTERN NORTH CAROLINA NATIONAL WEATHER SERVICE NEWPORT/MOREHEAD CITY NC 900 AM EDT SAT AUG 27 2016 NOTE: "FAIR" INDICATES FEW OR NO CLOUDS BELOW 12,000 FEET WITH NO SIGNIFICANT WEATHER AND/OR OBSTRUCTIONS TO VISIBILITY NCZ015>017-031-032-045>047-102-103-271400- NORTH COAST CITY SKY/WX TMP DP RH WIND PRES REMARKS EDENTON PTSUNNY 83 73 71 NW5 30.12S ELIZABETH CITY SUNNY 82 75 79 W5 30.12R KITTY HAWK SUNNY 85 78 79 W5 30.10S MANTEO SUNNY 81 75 82 W6 30.11S $$ NCZ045>047-081-094-103-104-271400- CENTRAL COAST CITY SKY/WX TMP DP RH WIND PRES REMARKS FRISCO SUNNY 84 74 71 NW6 30.11S $$ NCZ095-097-098-100-101-271400- SOUTHERN COAST CITY SKY/WX TMP DP RH WIND PRES REMARKS BEAUFORT SUNNY 83 74 74 N5 30.11R CEDAR ISLAND NOT AVBL JACKSONVILLE SUNNY 81 72 74 CALM 30.11R PINEY ISLAND NOT AVBL WILMINGTON SUNNY 81 73 76 NE3 30.10S $$ NCZ011>013-027>030-043-044-078>080-089-090>093-098-271400- COASTAL PLAIN CITY SKY/WX TMP DP RH WIND PRES REMARKS AHOSKIE MOSUNNY 76 74 93 CALM 30.12S CLINTON SUNNY 81 74 81 CALM 30.11F ELIZABETHTOWN SUNNY 78 74 86 CALM 30.11S GOLDSBORO SUNNY 82 76 84 W5 30.09S GREENVILLE SUNNY 81 73 78 CALM 30.13R HAVELOCK SUNNY 82 74 76 CALM 30.12S KENANSVILLE SUNNY 81 73 78 CALM 30.12R KINSTON SUNNY 81 72 74 W3 30.12S NEW BERN SUNNY 82 73 74 NW3 30.13R RICHLANDS SUNNY 82 74 76 CALM 30.12R ROCKY MOUNT SUNNY 81 75 82 VRB3 30.11S WASHINGTON SUNNY 80 73 78 W3 30.12R WHITEVILLE SUNNY 79 73 83 CALM 30.11S $$ AMZ130-135-150-152-154-156-158-170-250-252-270-ANZ085-086-088-633-658-670-271400- MARINE OBSERVATIONS STATION/POSITION TIME TEMP WIND PRES WAVE SWELL AIR SEA DIR/SP/G HT/PER HT/PER (UTC) (F) (DEG/KT/KT) (MB) (FT/S) (FT/S) CHESAPEAKE LIGHT NOT AVBL 64 E VA BEACH 1250 80 80 310/ 8/ 8 1019.2 2/ 8 2/ 8 DUCK 1300 81 63 290/ 6/ 7 1019.0 2 E DUCK 1211 78 N/A 2/11 2/11 OREGON INLET 1300 81 82 270/ 6/ 8 1019.5 13E OREGON INLT 1300 81 N/A 2/10 2/10 HATTERAS CG 1300 82 83 330/ 6/ 8 1019.2 DIAMOND BUOY 1250 82 85 340/ 8/ 10 1019.5 3/11 3/11 CAPE LOOKOUT 1300 82 10/ 4/ 6 1019.2 BEAUFORT LAB 1300 81 81 10/ 6/ 7 1019.0 30 SE NEW RVR IN 1308 83 84 50/ 6/ 10 1019.3 30 SE NEW RVR IN 1225 84 N/A 4/10 2/11 27 SE WRIGHTSVLE 1308 83 84 60/ 8/ 10 1019.5 5 SE WRIGHTSVLE 1308 81 83 30/ 6/ 10 1020.4 225 S CAPE HAT 1250 82 84 40/ 12/ 16 1017.5 4/ 9 3/ 9 41 SE CHARLESTON 1250 83 83 70/ 12/ 16 1017.6 5/11 3/11 $$

USA.gov is the U.S. government's official web portal to all federal, state and local government web resources and services.